| time (UTC) | temp C | wind direction | speed KPH | gust KPH | rain 1hr cm | rain 24hr cm | rain mn cm | humidity % | barometer mb |
| 20260503190517 | 20 | 302 | 9.7 | 27.4 | 0.00 | 0.00 | 0.00 | 33 | 1005.3 |
| 20260503190016 | 20 | 182 | 8.0 | 27.4 | 0.00 | 0.00 | 0.00 | 33 | 1005.4 |
| 20260503185520 | 20 | 226 | 9.7 | 29.0 | 0.00 | 0.00 | 0.00 | 34 | 1005.5 |
| 20260503185014 | 20 | 264 | 11.3 | 29.0 | 0.00 | 0.00 | 0.00 | 34 | 1005.5 |
| 20260503184513 | 20 | 336 | 8.0 | 25.7 | 0.00 | 0.00 | 0.00 | 34 | 1005.6 |
| 20260503184015 | 19 | 263 | 6.4 | 24.1 | 0.00 | 0.00 | 0.00 | 33 | 1005.9 |
| 20260503183512 | 19 | 296 | 9.7 | 24.1 | 0.00 | 0.00 | 0.00 | 34 | 1006.0 |
| 20260503183012 | 19 | 263 | 12.9 | 24.1 | 0.00 | 0.00 | 0.00 | 33 | 1006.2 |
| 20260503182514 | 19 | 278 | 12.9 | 24.1 | 0.00 | 0.00 | 0.00 | 33 | 1006.2 |
| 20260503182010 | 19 | 331 | 8.0 | 24.1 | 0.00 | 0.00 | 0.00 | 35 | 1006.4 |
| 20260503181509 | 19 | 300 | 8.0 | 24.1 | 0.00 | 0.00 | 0.00 | 34 | 1006.5 |
| 20260503181008 | 18 | 286 | 6.4 | 22.5 | 0.00 | 0.00 | 0.00 | 35 | 1006.6 |
| 20260503180507 | 18 | 257 | 12.9 | 22.5 | 0.00 | 0.00 | 0.00 | 34 | 1006.8 |
| 20260503180016 | 18 | 301 | 9.7 | 24.1 | 0.00 | 0.00 | 0.00 | 34 | 1006.8 |
| 20260503175505 | 18 | 266 | 12.9 | 24.1 | 0.00 | 0.00 | 0.00 | 35 | 1006.9 |
| 20260503175004 | 18 | 228 | 8.0 | 22.5 | 0.00 | 0.00 | 0.00 | 37 | 1007.0 |
| 20260503174512 | 18 | 275 | 12.9 | 22.5 | 0.00 | 0.00 | 0.00 | 36 | 1007.2 |
| 20260503174004 | 17 | 271 | 6.4 | 19.3 | 0.00 | 0.00 | 0.00 | 37 | 1007.2 |
| 20260503173501 | 17 | 269 | 8.0 | 19.3 | 0.00 | 0.00 | 0.00 | 37 | 1007.2 |
| 20260503173131 | 17 | 251 | 11.3 | 19.3 | 0.00 | 0.00 | 0.00 | 39 | 1007.5 |
| 20260503172559 | 17 | 265 | 6.4 | 19.3 | 0.00 | 0.00 | 0.00 | 39 | 1007.4 |
| 20260503172102 | 17 | 262 | 8.0 | 17.7 | 0.00 | 0.00 | 0.00 | 39 | 1007.4 |
| 20260503171557 | 17 | 317 | 9.7 | 17.7 | 0.00 | 0.00 | 0.00 | 39 | 1007.5 |
| 20260503171056 | 17 | 296 | 8.0 | 16.1 | 0.00 | 0.00 | 0.00 | 39 | 1007.7 |
| 20260503170554 | 16 | 270 | 1.6 | 11.3 | 0.00 | 0.00 | 0.00 | 40 | 1007.8 |
| 20260503150530 | 12 | 318 | 8.0 | 14.5 | 0.00 | 0.00 | 0.00 | 52 | 1009.2 |
| 20260503131002 | 7 | 325 | 4.8 | 12.9 | 0.00 | 0.00 | 0.00 | 64 | 1009.3 |
| 20260503130504 | 7 | 302 | 4.8 | 12.9 | 0.00 | 0.00 | 0.00 | 65 | 1009.4 |
| 20260503110545 | 6 | 341 | 9.7 | 19.3 | 0.00 | 0.00 | 0.00 | 66 | 1008.2 |
| 20260503081517 | 8 | 306 | 11.3 | 19.3 | 0.00 | 0.00 | 0.00 | 71 | 1007.4 |
| 20260503081016 | 8 | 340 | 12.9 | 22.5 | 0.00 | 0.00 | 0.00 | 71 | 1007.2 |
| 20260503080513 | 8 | 345 | 9.7 | 22.5 | 0.00 | 0.00 | 0.00 | 70 | 1007.2 |
| 20260503072506 | 9 | 317 | 11.3 | 24.1 | 0.00 | 0.00 | 0.00 | 69 | 1007.1 |
| 20260503072004 | 9 | 348 | 12.9 | 24.1 | 0.00 | 0.00 | 0.00 | 68 | 1007.1 |
| 20260503071506 | 10 | 331 | 12.9 | 24.1 | 0.00 | 0.00 | 0.00 | 68 | 1007.1 |
| 20260503071002 | 10 | 323 | 14.5 | 27.4 | 0.00 | 0.00 | 0.00 | 67 | 1007.1 |
| 20260503070500 | 10 | 296 | 16.1 | 27.4 | 0.00 | 0.00 | 0.00 | 67 | 1006.9 |
| 20260503070115 | 10 | 348 | 12.9 | 24.1 | 0.00 | 0.00 | 0.00 | 66 | 1006.9 |
| 20260503060103 | 10 | 334 | 11.3 | 25.7 | 0.00 | 0.00 | 0.00 | 66 | 1006.5 |
| 20260503055049 | 11 | 310 | 12.9 | 24.1 | 0.00 | 0.00 | 0.00 | 64 | 1006.5 |
| 20260503054556 | 11 | 316 | 12.9 | 24.1 | 0.00 | 0.00 | 0.00 | 63 | 1006.3 |
| 20260503054046 | 11 | 324 | 12.9 | 27.4 | 0.00 | 0.00 | 0.00 | 61 | 1006.3 |
| 20260503053545 | 12 | 336 | 14.5 | 27.4 | 0.00 | 0.00 | 0.00 | 60 | 1006.2 |
| 20260503053043 | 12 | 350 | 14.5 | 24.1 | 0.00 | 0.00 | 0.00 | 59 | 1006.1 |
| 20260503052542 | 12 | 317 | 14.5 | 24.1 | 0.00 | 0.00 | 0.00 | 59 | 1005.9 |
| 20260503052040 | 12 | 18 | 11.3 | 22.5 | 0.00 | 0.00 | 0.00 | 59 | 1005.8 |
| 20260503051547 | 12 | 360 | 12.9 | 30.6 | 0.00 | 0.00 | 0.00 | 59 | 1005.8 |
| 20260503051041 | 12 | 10 | 9.7 | 30.6 | 0.00 | 0.00 | 0.00 | 59 | 1005.7 |
| 20260503050538 | 12 | 323 | 14.5 | 25.7 | 0.00 | 0.00 | 0.00 | 59 | 1005.7 |
| 20260503050037 | 12 | 17 | 12.9 | 32.2 | 0.00 | 0.00 | 0.00 | 59 | 1005.6 |
| 20260503045537 | 12 | 349 | 11.3 | 32.2 | 0.00 | 0.00 | 0.00 | 58 | 1005.5 |
| 20260503045036 | 13 | 24 | 12.9 | 25.7 | 0.00 | 0.00 | 0.00 | 58 | 1005.5 |
| 20260503044536 | 13 | 40 | 14.5 | 35.4 | 0.00 | 0.00 | 0.00 | 57 | 1005.5 |
| 20260503044036 | 13 | 360 | 16.1 | 35.4 | 0.00 | 0.00 | 0.00 | 57 | 1005.4 |
| 20260503043536 | 13 | 341 | 14.5 | 33.8 | 0.00 | 0.00 | 0.00 | 57 | 1005.4 |
| 20260503043036 | 13 | 34 | 16.1 | 29.0 | 0.00 | 0.00 | 0.00 | 57 | 1005.3 |
| 20260503042536 | 13 | 336 | 11.3 | 27.4 | 0.00 | 0.00 | 0.00 | 57 | 1005.4 |
| 20260503042036 | 13 | 311 | 14.5 | 40.2 | 0.00 | 0.00 | 0.00 | 57 | 1005.4 |
| 20260503041536 | 13 | 355 | 14.5 | 40.2 | 0.00 | 0.00 | 0.00 | 57 | 1005.3 |
| 20260503041038 | 13 | 325 | 19.3 | 37.0 | 0.00 | 0.00 | 0.00 | 57 | 1005.2 |
| 20260503040535 | 13 | 339 | 16.1 | 37.0 | 0.00 | 0.00 | 0.00 | 56 | 1005.1 |
| 20260503040035 | 13 | 318 | 14.5 | 25.7 | 0.00 | 0.00 | 0.00 | 56 | 1005.1 |
| 20260503035637 | 13 | 342 | 14.5 | 25.7 | 0.00 | 0.00 | 0.00 | 56 | 1005.1 |
| 20260503035035 | 13 | 23 | 11.3 | 25.7 | 0.00 | 0.00 | 0.00 | 56 | 1004.9 |
| 20260503034538 | 13 | 347 | 12.9 | 27.4 | 0.00 | 0.00 | 0.00 | 56 | 1004.9 |
| 20260503034035 | 13 | 346 | 11.3 | 37.0 | 0.00 | 0.00 | 0.00 | 57 | 1004.9 |
| 20260503033534 | 13 | 323 | 17.7 | 37.0 | 0.00 | 0.00 | 0.00 | 57 | 1005.0 |
| 20260503033045 | 13 | 336 | 16.1 | 27.4 | 0.00 | 0.00 | 0.00 | 57 | 1004.7 |
| 20260503032534 | 14 | 336 | 12.9 | 27.4 | 0.00 | 0.00 | 0.00 | 57 | 1004.8 |
| 20260503032034 | 14 | 313 | 14.5 | 29.0 | 0.00 | 0.00 | 0.00 | 56 | 1004.7 |
| 20260503031537 | 15 | 344 | 16.1 | 38.6 | 0.00 | 0.00 | 0.00 | 54 | 1004.7 |
| 20260503031034 | 15 | 339 | 17.7 | 38.6 | 0.00 | 0.00 | 0.00 | 52 | 1004.6 |
| 20260503030534 | 16 | 333 | 20.9 | 41.8 | 0.00 | 0.00 | 0.00 | 49 | 1004.5 |
| 20260503030036 | 16 | 336 | 25.7 | 43.5 | 0.00 | 0.00 | 0.00 | 46 | 1004.4 |
| 20260503025534 | 17 | 350 | 16.1 | 29.0 | 0.00 | 0.00 | 0.00 | 45 | 1004.4 |
| 20260503025035 | 17 | 348 | 16.1 | 27.4 | 0.00 | 0.00 | 0.00 | 43 | 1004.3 |
| 20260503024543 | 17 | 336 | 12.9 | 27.4 | 0.00 | 0.00 | 0.00 | 42 | 1004.2 |
| 20260503024033 | 17 | 313 | 12.9 | 24.1 | 0.00 | 0.00 | 0.00 | 41 | 1004.0 |
| 20260503023533 | 17 | 338 | 11.3 | 20.9 | 0.00 | 0.00 | 0.00 | 41 | 1004.0 |
| 20260503023033 | 18 | 318 | 11.3 | 20.9 | 0.00 | 0.00 | 0.00 | 40 | 1003.8 |
| 20260503022532 | 18 | 329 | 11.3 | 20.9 | 0.00 | 0.00 | 0.00 | 39 | 1003.8 |
| 20260503022036 | 18 | 355 | 11.3 | 22.5 | 0.00 | 0.00 | 0.00 | 39 | 1003.7 |
| 20260503021535 | 18 | 325 | 11.3 | 19.3 | 0.00 | 0.00 | 0.00 | 39 | 1003.6 |
| 20260503021032 | 18 | 5 | 8.0 | 17.7 | 0.00 | 0.00 | 0.00 | 38 | 1003.6 |
| 20260503020534 | 18 | 325 | 8.0 | 19.3 | 0.00 | 0.00 | 0.00 | 37 | 1003.5 |
| 20260503020032 | 18 | 329 | 9.7 | 24.1 | 0.00 | 0.00 | 0.00 | 37 | 1003.5 |
| 20260503015532 | 18 | 325 | 9.7 | 24.1 | 0.00 | 0.00 | 0.00 | 36 | 1003.4 |
| 20260503015035 | 19 | 328 | 9.7 | 19.3 | 0.00 | 0.00 | 0.00 | 36 | 1003.2 |
| 20260503014531 | 19 | 323 | 8.0 | 22.5 | 0.00 | 0.00 | 0.00 | 36 | 1003.2 |
| 20260503014031 | 19 | 340 | 11.3 | 22.5 | 0.00 | 0.00 | 0.00 | 35 | 1003.2 |
| 20260503013531 | 19 | 334 | 8.0 | 24.1 | 0.00 | 0.00 | 0.00 | 35 | 1003.3 |
| 20260503013035 | 20 | 321 | 8.0 | 16.1 | 0.00 | 0.00 | 0.00 | 34 | 1003.2 |
| 20260503012533 | 20 | 327 | 8.0 | 16.1 | 0.00 | 0.00 | 0.00 | 34 | 1003.2 |
| 20260503012033 | 20 | 339 | 9.7 | 16.1 | 0.00 | 0.00 | 0.00 | 34 | 1003.1 |
| 20260503011530 | 20 | 338 | 8.0 | 16.1 | 0.00 | 0.00 | 0.00 | 34 | 1003.0 |
| 20260503011032 | 20 | 9 | 3.2 | 19.3 | 0.00 | 0.00 | 0.00 | 34 | 1003.0 |
| 20260503010531 | 20 | 274 | 8.0 | 19.3 | 0.00 | 0.00 | 0.00 | 33 | 1002.9 |
| 20260503010033 | 21 | 288 | 8.0 | 19.3 | 0.00 | 0.00 | 0.00 | 33 | 1002.9 |
| 20260503005530 | 21 | 260 | 11.3 | 19.3 | 0.00 | 0.00 | 0.00 | 33 | 1002.8 |
| 20260503005030 | 21 | 322 | 6.4 | 24.1 | 0.00 | 0.00 | 0.00 | 32 | 1002.8 |
| 20260503004535 | 21 | 296 | 6.4 | 24.1 | 0.00 | 0.00 | 0.00 | 31 | 1002.7 |
| 20260503004030 | 21 | 317 | 12.9 | 20.9 | 0.00 | 0.00 | 0.00 | 31 | 1002.8 |
| 20260503003529 | 21 | 257 | 8.0 | 20.9 | 0.00 | 0.00 | 0.00 | 30 | 1002.8 |
| 20260503003035 | 21 | 288 | 9.7 | 20.9 | 0.00 | 0.00 | 0.00 | 31 | 1003.0 |
| 20260503002526 | 21 | 268 | 4.8 | 24.1 | 0.00 | 0.00 | 0.00 | 33 | 1003.0 |
| 20260503002027 | 21 | 197 | 12.9 | 27.4 | 0.00 | 0.00 | 0.00 | 33 | 1002.9 |
| 20260503001526 | 21 | 196 | 11.3 | 25.7 | 0.00 | 0.00 | 0.00 | 35 | 1003.0 |
| 20260503001026 | 21 | 174 | 9.7 | 29.0 | 0.00 | 0.00 | 0.00 | 35 | 1003.1 |
| 20260503000524 | 21 | 180 | 12.9 | 32.2 | 0.00 | 0.00 | 0.00 | 35 | 1003.3 |
| 20260503000024 | 21 | 209 | 14.5 | 32.2 | 0.00 | 0.00 | 0.00 | 34 | 1003.3 |
| 20260502235523 | 21 | 271 | 16.1 | 30.6 | 0.00 | 0.00 | 0.00 | 34 | 1003.5 |
| 20260502235023 | 21 | 202 | 16.1 | 35.4 | 0.00 | 0.00 | 0.00 | 32 | 1003.5 |
| 20260502234528 | 21 | 218 | 19.3 | 35.4 | 0.00 | 0.00 | 0.00 | 31 | 1003.5 |
| 20260502234022 | 21 | 162 | 12.9 | 29.0 | 0.00 | 0.00 | 0.00 | 30 | 1003.6 |
| 20260502233521 | 21 | 191 | 6.4 | 25.7 | 0.00 | 0.00 | 0.00 | 30 | 1003.7 |
| 20260502233021 | 21 | 167 | 9.7 | 25.7 | 0.00 | 0.00 | 0.00 | 29 | 1003.9 |
| 20260502232521 | 21 | 245 | 8.0 | 30.6 | 0.00 | 0.00 | 0.00 | 29 | 1004.0 |
| 20260502232018 | 21 | 213 | 8.0 | 30.6 | 0.00 | 0.00 | 0.00 | 28 | 1004.1 |
| 20260502231524 | 21 | 190 | 6.4 | 27.4 | 0.00 | 0.00 | 0.00 | 28 | 1004.2 |
| 20260502231017 | 21 | 212 | 11.3 | 27.4 | 0.00 | 0.00 | 0.00 | 28 | 1004.3 |
| 20260502230517 | 21 | 205 | 11.3 | 25.7 | 0.00 | 0.00 | 0.00 | 29 | 1004.3 |
| 20260502230016 | 21 | 205 | 17.7 | 25.7 | 0.00 | 0.00 | 0.00 | 29 | 1004.4 |
| 20260502225514 | 21 | 195 | 8.0 | 24.1 | 0.00 | 0.00 | 0.00 | 28 | 1004.5 |
| 20260502225014 | 21 | 207 | 11.3 | 25.7 | 0.00 | 0.00 | 0.00 | 27 | 1004.6 |
| 20260502224513 | 21 | 200 | 14.5 | 29.0 | 0.00 | 0.00 | 0.00 | 28 | 1004.7 |
| 20260502224013 | 21 | 211 | 16.1 | 30.6 | 0.00 | 0.00 | 0.00 | 28 | 1004.8 |
| 20260502223512 | 21 | 196 | 8.0 | 30.6 | 0.00 | 0.00 | 0.00 | 29 | 1004.9 |
| 20260502223010 | 21 | 193 | 6.4 | 30.6 | 0.00 | 0.00 | 0.00 | 29 | 1005.0 |
| 20260502222510 | 21 | 205 | 17.7 | 30.6 | 0.00 | 0.00 | 0.00 | 28 | 1005.1 |
| 20260502222010 | 21 | 213 | 11.3 | 33.8 | 0.00 | 0.00 | 0.00 | 28 | 1005.2 |
| 20260502221510 | 21 | 202 | 16.1 | 33.8 | 0.00 | 0.00 | 0.00 | 28 | 1005.4 |
| 20260502221008 | 21 | 221 | 11.3 | 29.0 | 0.00 | 0.00 | 0.00 | 28 | 1005.6 |
| 20260502220507 | 21 | 216 | 12.9 | 27.4 | 0.00 | 0.00 | 0.00 | 27 | 1005.6 |
| 20260502220012 | 21 | 198 | 12.9 | 25.7 | 0.00 | 0.00 | 0.00 | 28 | 1005.8 |
| 20260502215507 | 20 | 219 | 11.3 | 30.6 | 0.00 | 0.00 | 0.00 | 29 | 1005.8 |
| 20260502215004 | 20 | 202 | 12.9 | 30.6 | 0.00 | 0.00 | 0.00 | 29 | 1006.0 |
| 20260502214504 | 20 | 217 | 11.3 | 22.5 | 0.00 | 0.00 | 0.00 | 29 | 1006.1 |
| 20260502214003 | 20 | 219 | 9.7 | 24.1 | 0.00 | 0.00 | 0.00 | 29 | 1006.2 |
| 20260502213503 | 20 | 196 | 9.7 | 24.1 | 0.00 | 0.00 | 0.00 | 30 | 1006.4 |
| 20260502213004 | 20 | 176 | 6.4 | 19.3 | 0.00 | 0.00 | 0.00 | 31 | 1006.5 |
| 20260502212501 | 20 | 190 | 11.3 | 19.3 | 0.00 | 0.00 | 0.00 | 30 | 1006.6 |
| 20260502212001 | 19 | 208 | 9.7 | 25.7 | 0.00 | 0.00 | 0.00 | 32 | 1006.7 |
| 20260502211600 | 19 | 214 | 11.3 | 27.4 | 0.00 | 0.00 | 0.00 | 31 | 1006.9 |
| 20260502211059 | 20 | 168 | 12.9 | 27.4 | 0.00 | 0.00 | 0.00 | 31 | 1006.9 |
| 20260502210559 | 20 | 192 | 8.0 | 16.1 | 0.00 | 0.00 | 0.00 | 31 | 1007.1 |
| 20260502210058 | 19 | 271 | 6.4 | 16.1 | 0.00 | 0.00 | 0.00 | 31 | 1007.2 |
| 20260502205558 | 19 | 300 | 8.0 | 19.3 | 0.00 | 0.00 | 0.00 | 31 | 1007.5 |
| 20260502205056 | 19 | 194 | 6.4 | 19.3 | 0.00 | 0.00 | 0.00 | 31 | 1007.6 |
| 20260502204602 | 19 | 246 | 6.4 | 25.7 | 0.00 | 0.00 | 0.00 | 31 | 1007.8 |
| 20260502204055 | 19 | 248 | 8.0 | 25.7 | 0.00 | 0.00 | 0.00 | 31 | 1007.6 |
| 20260502203554 | 19 | 242 | 4.8 | 17.7 | 0.00 | 0.00 | 0.00 | 31 | 1007.8 |
| 20260502203118 | 19 | 169 | 8.0 | 19.3 | 0.00 | 0.00 | 0.00 | 32 | 1008.1 |
| 20260502202553 | 19 | 182 | 4.8 | 17.7 | 0.00 | 0.00 | 0.00 | 32 | 1008.3 |
| 20260502202056 | 18 | 178 | 4.8 | 17.7 | 0.00 | 0.00 | 0.00 | 32 | 1008.4 |
| 20260502201603 | 18 | 22 | 6.4 | 24.1 | 0.00 | 0.00 | 0.00 | 33 | 1008.6 |
| 20260502201054 | 18 | 355 | 0.0 | 38.6 | 0.00 | 0.00 | 0.00 | 33 | 1008.7 |
| 20260502200551 | 18 | 281 | 14.5 | 38.6 | 0.00 | 0.00 | 0.00 | 32 | 1009.3 |
| 20260502200059 | 19 | 269 | 6.4 | 19.3 | 0.00 | 0.00 | 0.00 | 29 | 1008.9 |
| 20260502195550 | 19 | 240 | 8.0 | 27.4 | 0.00 | 0.00 | 0.00 | 30 | 1008.8 |
| 20260502195050 | 19 | 278 | 14.5 | 32.2 | 0.00 | 0.00 | 0.00 | 32 | 1008.8 |
| 20260502194555 | 19 | 275 | 8.0 | 32.2 | 0.00 | 0.00 | 0.00 | 32 | 1008.9 |
| 20260502194051 | 20 | 286 | 14.5 | 32.2 | 0.00 | 0.00 | 0.00 | 32 | 1009.1 |
| 20260502193551 | 20 | 253 | 8.0 | 30.6 | 0.00 | 0.00 | 0.00 | 30 | 1009.1 |
| 20260502193100 | 20 | 292 | 12.9 | 30.6 | 0.00 | 0.00 | 0.00 | 29 | 1009.1 |
| 20260502192549 | 20 | 244 | 12.9 | 25.7 | 0.00 | 0.00 | 0.00 | 29 | 1009.1 |
| 20260502192047 | 20 | 250 | 12.9 | 33.8 | 0.00 | 0.00 | 0.00 | 29 | 1009.1 |
| 20260502191550 | 21 | 221 | 9.7 | 33.8 | 0.00 | 0.00 | 0.00 | 29 | 1009.1 |
| 20260502191048 | 21 | 286 | 6.4 | 32.2 | 0.00 | 0.00 | 0.00 | 29 | 1009.0 |